Regional Weather Roundup
Issued by NWS

Home | Current Version | Previous Version | Text Only | Print | Product List | Glossary On
Versions: 1 2 3 4 5 6 7 8 9 10 11 12 13 14 15 16 17 18 19 20 21 22 23 24 25 26 27 28 29 30 31 32 33 34 35 36 37 38 39 40 41 42 43 44 45 46 47 48 49 50
000
ASUS42 KTBW 020410
RWRFL
FLORIDA REGIONAL WEATHER ROUNDUP
NATIONAL WEATHER SERVICE TAMPA BAY RUSKIN FL
1100 PM EST SUN MAR 01 2015

NOTE: "FAIR" INDICATES FEW OR NO CLOUDS BELOW 12,000 FEET WITH NO
SIGNIFICANT WEATHER AND/OR OBSTRUCTIONS TO VISIBILITY.


FLZ001>010-012>015-112-114-115-020500-
PANHANDLE FLORIDA

CITY           SKY/WX    TMP DP  RH WIND       PRES   REMARKS
PENSACOLA      CLOUDY    55  54  96 NE6       30.35S FOG
PENSACOLA NAS  FOG       56  55  97 NE9       30.35R VSB 1
MILTON NAS     CLOUDY    54  53  97 NE8       30.37R
CRESTVIEW      CLOUDY    53  52  96 E3        30.40R FOG
DUKE FIELD     LGT RAIN  54  52  94 NE5       30.36S FOG
VALPARAISO     CLOUDY    54  53  94 NE6       30.37R FOG
MARY ESTHER    CLOUDY    55  52  90 NE9       30.35S
TRI COUNTY     CLOUDY    52  50  93 NE7       30.40S
PANAMA CITY    CLOUDY    56  52  86 N7        30.37R
TYNDALL AFB    CLOUDY    58  56  93 NE5       30.37R
APALACHICOLA   FOG       63  59  87 NE7       30.35S VSB 1

STATION/POSITION SKY/WX   TEMP    WIND        PRES    WAVE   SWELL
                          AIR SEA DIR/SP/G            HT/PER HT/PER
                          (F)     (DEG/KT/KT) (MB)    (FT/S) (FT/S)
30.1N   87.6W              60 63   60/ 16/ 17 1026.7R   3/ 5   2/12
29.2N   88.2W              69 71  120/ 16/ 17 1026.4R   3/ 7   2/ 9
28.7N   86.0W              66 68   80/ 12/ 14 1027.1    3/ 5   2/ 7
PANAMA CITY BEAC           56 58   30/  8/ 10 1028.0S
CAPE SAN BLAS    NOT AVBL
TOWER C                    59      60/ 13/ 15 1027.6R
28.5N   84.5W              64 66   30/ 10/ 10 1027.1F   1/ 4

$$
FLZ011-016>038-118-127-128-134-139-239-020500-
NORTH FLORIDA

CITY           SKY/WX    TMP DP  RH WIND       PRES   REMARKS
MARIANNA       CLOUDY    52  52 100 N5        30.38S
TALLAHASSEE    CLOUDY    59  56  89 NE3       30.37S
PERRY          CLOUDY    60  57  88 NE5       30.37F
CROSS CITY       N/A     64  59  83 NE7       30.35S
LAKE CITY      CLOUDY    57  55  94 N5        30.37S FOG
GAINESVILLE    CLOUDY    63  61  93 N5        30.36R
MAYPORT NAS    FOG       52  50  93 N9        30.38F VSB 1/2
JACKSONVILLE   FOG       53  53 100 NE3       30.37F VSB 1/4
JAX NAS        FOG       56  52  86 N7        30.38F VSB 1/2
JAX CRAIG      FOG       52  51  97 NE6       30.37F VSB 1/2
JAX CECIL      FOG       55  55 100 NE3       30.38S VSB 1/2
FERNANDINA BEA CLOUDY    55  54  94 CALM      30.36F
ST AUGUSTINE   LGT RAIN  53  52  96 N6        30.37F VSB 1/2

STATION/POSITION SKY/WX   TEMP    WIND        PRES    WAVE   SWELL
                          AIR SEA DIR/SP/G            HT/PER HT/PER
                          (F)     (DEG/KT/KT) (MB)    (FT/S) (FT/S)
SHELL POINT                59      30/  5/  9   N/A
KEATON BEACH               61      40/  7/  9 1027.9F
CEDAR KEY                  68      30/  7/  9 1027.7R
FERNANDINA                 51 53   30/  4/  6 1028.1F
30.7N   81.3W                 52                N/A     4/10   2/11
MAYPORT                    51 55   40/  6/  7 1028.6F
31.4N   80.9W              50 53  360/  8/ 10 1028.7F   4/ 9   3/ 9
ST AUGUSTINE               52     360/ 14/ 15 1028.5F

$$
FLZ040-043>046-052-053-057-058-063-144-020500-
INTERIOR CENTRAL FLORIDA

CITY           SKY/WX    TMP DP  RH WIND       PRES   REMARKS
OCALA          MOCLDY    66  63  88 E5        30.34F
THE VILLAGES     N/A     68  68 100 NE6       30.24S FOG
LEESBURG       CLOUDY    68  67  96 NE6       30.34S FOG
SANFORD        FOG       63  62  97 N6        30.34S VSB 3/4
ORLANDO EXEC   FOG       68  66  93 NE3       30.33S VSB 3/4
ORLANDO INTL   PTCLDY    68  67  96 E5        30.33S
WINTER HAVEN   CLEAR     68  66  93 E3        30.33S
LAKELAND       CLEAR     68  64  88 E3        30.32S
BARTOW         FAIR      66  66 100 E5        30.32F
OKEECHOBEE     CLEAR     64  64 100 NE3       30.31F

$$
FLZ041-047-054-059-064-141-147-020500-
EAST CENTRAL FLORIDA

CITY           SKY/WX    TMP DP  RH WIND       PRES   REMARKS
DAYTONA BEACH  FOG       59  58  96 N3        30.36S VSB 1
DELAND         CLOUDY   N/A N/A N/A NE3       30.35F VSB 1/4
JFK SPACE CTR  FOG       62  60  96 N5        30.33R VSB 3/4
CAPE CANAVERAL CLEAR     64  64 100 E1        30.31S
PATRICK AFB    CLEAR     68  68  99 E5        30.31S FOG
MELBOURNE      PTCLDY    70  68  93 E3        30.32R
VERO BEACH     CLEAR     69  66  90 SE3       30.31F
FT PIERCE      CLEAR     69  67  93 SE3       30.31S
STUART         PTCLDY    72  68  88 E7        30.32S

STATION/POSITION SKY/WX   TEMP    WIND        PRES    WAVE   SWELL
                          AIR SEA DIR/SP/G            HT/PER HT/PER
                          (F)     (DEG/KT/KT) (MB)    (FT/S) (FT/S)
28.5N   80.2W              71 69  120/  8/  8 1026.9R
28.9N   78.5W              73 75  120/ 12/ 14 1027.4F   7/ 9   7/ 9
TRIDENT PIER               68 65   60/  2/  4 1027.2R
28.4N   80.5W                 65                N/A     3/11   2/11
27.6N   80.2W                 71                N/A     5/11   2/11

$$
FLZ050-056-061-142-242-148-248-149-249-151-251-155-255-
160-260-020500-
WEST CENTRAL FLORIDA

CITY           SKY/WX    TMP DP  RH WIND       PRES   REMARKS
CRYSTAL RIVER  CLOUDY    70  64  83 E3        30.33S
INVERNESS      MOCLDY    68  54  60 N3        30.34R
BROOKSVILLE    CLOUDY    70  67  90 CALM      30.33S
ZEPHYRHILLS    MOCLDY    66  66 100 CALM      30.33S
CLEARWATER     MOCLDY    70  67  90 N3        30.31S
TAMPA INTL     MOCLDY    72  67  84 CALM      30.32S
TAMPA EXEC     CLEAR     68  66  94 CALM      30.32S
PLANT CITY     CLEAR    N/A N/A N/A CALM      30.34R
MACDILL AFB    MOCLDY    69  69  99 NE5       30.31S
PETER O KNIGHT CLOUDY    73  70  88 NE5       30.32S
ST PETERSBURG  MOCLDY    72  66  81 N7        30.30R
SARASOTA       CLEAR     69  66  90 NE7       30.29S
VENICE         MOCLDY    70  66  88 CALM      30.31S

STATION/POSITION SKY/WX   TEMP    WIND        PRES    WAVE   SWELL
                          AIR SEA DIR/SP/G            HT/PER HT/PER
                          (F)     (DEG/KT/KT) (MB)    (FT/S) (FT/S)
CEDAR KEY                  68      30/  7/  9 1027.7R
28.5N   84.5W              64 66   30/ 10/ 10 1027.1F   1/ 4
27.3N   84.3W                 69                N/A     2/ 5
CLEARWATER BEACH           70 63   20/  5/  6 1026.8R
MIDDLE TAMPA BAY           67      20/  7/  7 1026.7R
VENICE                     70 65  320/  2/  2 1025.6R

$$
FLZ066-069-070-075>078-162-262-165-265-020500-
SOUTHWEST FLORIDA AND KEYS

CITY           SKY/WX    TMP DP  RH WIND       PRES   REMARKS
PUNTA GORDA    CLEAR     70  66  87 SE5       30.31S
FT MYERS       CLEAR     70  67  90 E6        30.29S
SOUTHWEST INTL CLEAR     70  65  84 E3        30.29F
NAPLES         CLEAR     70  70 100 NE3       30.29S
MARCO ISLAND   CLEAR     70  66  88 E6        30.28F
IMMOKALEE      CLEAR    N/A N/A N/A CALM      30.30F
MARATHON       CLEAR     75  71  87 E9G18     30.26S
KEY WEST NAS   PTCLDY    76  69  79 E14       30.26S
KEY WEST INTL  CLEAR     75  70  84 E9        30.26S

STATION/POSITION SKY/WX   TEMP    WIND        PRES    WAVE   SWELL
                          AIR SEA DIR/SP/G            HT/PER HT/PER
                          (F)     (DEG/KT/KT) (MB)    (FT/S) (FT/S)
VENICE                     70 65  320/  2/  2 1025.6R
NAPLES                     70 67   80/  1/  2 1025.4S
26.0N   85.6W              75 76   80/ 10/ 12 1024.7F   4/ 7   3/ 7
DRY TORTUGAS               73      90/ 14/ 15 1024.2R
SAND KEY                   75      80/ 17/ 21 1024.4S
SOMBRERO KEY               75      70/ 18/ 19 1024.9F
LONG KEY                   76 78   80/ 17/ 20 1025.6R
MOLASSES REEF              76 76   70/ 15/ 16 1024.7F

$$
FLZ067-068-071>074-168-172>174-020500-
SOUTHEAST FLORIDA

CITY           SKY/WX    TMP DP  RH WIND       PRES   REMARKS
W PALM BEACH   PTCLDY    75  69  81 E6        30.29S
FT LAUDER-EXEC PTCLDY    74  68  81 E9        30.29S
FT LAUDERDALE  PTCLDY    74  70  87 E13       30.28S
POMPANO BEACH  PTCLDY    75  67  76 E9        30.29S
PEMBROKE PINES CLEAR     73  67  81 E7        30.30S
OPA LOCKA      CLEAR     73  67  81 E7        30.29S
MIAMI          PTCLDY    74  67  78 E10       30.29S
WEST KENDALL   CLEAR     72  67  84 E9        30.28F
HOMESTEAD      CLEAR     74  68  81 E13       30.27S

STATION/POSITION SKY/WX   TEMP    WIND        PRES    WAVE   SWELL
                          AIR SEA DIR/SP/G            HT/PER HT/PER
                          (F)     (DEG/KT/KT) (MB)    (FT/S) (FT/S)
PORT EVERGLADES            76      90/  8/ 11 1025.5
VIRGINIA KEY               76 76   80/ 12/ 15 1025.0R
LAKE WORTH                 75 75   90/  8/ 10 1025.4F
SETTLEMENT POINT           74     100/ 15/ 17 1026.7F

$$



USA.gov is the U.S. government's official web portal to all federal, state and local government web resources and services.